Medford, WI

1:58 AM CST on January 21, 2018 (GMT -0600)
Taylor County

Weather History for KMDZ - January, 2012

Change the Weather History Date:

Sunday, January 1, 2012

  Actual Average Record
Temperature  
Mean Temperature 28 °F -  
Max Temperature 32 °F 20 °F 41 °F (1955)
Min Temperature 23 °F 3 °F -28 °F (1968)
Degree Days  
Heating Degree Days 37    
Moisture  
Dew Point 24 °F    
Average Humidity 87    
Maximum Humidity 100    
Minimum Humidity 74    
Precipitation  
Precipitation 0.00 in - - ()
Sea Level Pressure  
Sea Level Pressure 29.72 in    
Wind  
Wind Speed 12 mph (WNW)    
Max Wind Speed 25 mph    
Max Gust Speed 34 mph    
Visibility 4 miles    
Events Snow    
Averages and records for this station are not official NWS values.
T = Trace of Precipitation, MM = Missing Value Source: NWS Daily Summary

Daily Weather History Graph

Daily Weather History Graph

Search for Another Location

Airport or City:

Trip Planner

Search our weather history database for the weather conditions in past years. The results will help you decide how hot, cold, wet, or windy it might be!

Date:

Astronomy

Jan. 01, 2012 Rise Set
Actual Time 7:39 AM CST 4:29 PM CST
Civil Twilight 7:06 AM CST 5:03 PM CST
Nautical Twilight 6:28 AM CST 5:40 PM CST
Astronomical Twilight 5:53 AM CST 6:16 PM CST
Moon 11:27 AM CST (1/1) 12:24 AM CST (1/1)
Length of Visible Light 9h 57m
Length of Day
8h 49m
First Quarter, 55% of the Moon is Illuminated
Jan 1
First Quarter
Jan 9
Full
Jan 16
Last Quarter
Jan 23
New
Jan 30
First Quarter

Hourly Weather History & Observations

Time (CST) Temp. Windchill Dew Point Humidity Pressure Visibility Wind Dir Wind Speed Gust Speed Precip Events Conditions
12:15 AM 30.2 °F - 30.2 °F 100% 29.59 in 1.8 mi Calm Calm - N/A Snow Light Snow
12:55 AM 30.2 °F - 30.2 °F 100% 29.59 in 1.8 mi Calm Calm - N/A Snow Light Snow
1:15 AM 30.2 °F 26.7 °F 30.2 °F 100% 29.59 in 1.8 mi NNW 3.5 mph - N/A Snow Light Snow
1:35 AM 30.2 °F 26.7 °F 30.2 °F 100% 29.59 in 1.5 mi NW 3.5 mph - N/A Snow Light Snow
2:15 AM 30.2 °F 24.3 °F 30.2 °F 100% 29.60 in 1.8 mi NW 5.8 mph - N/A Snow Light Snow
2:35 AM 30.2 °F 24.3 °F 30.2 °F 100% 29.61 in 2.5 mi NW 5.8 mph - N/A Snow Light Snow
2:55 AM 30.2 °F 22.6 °F 30.2 °F 100% 29.60 in 2.5 mi WNW 8.1 mph - N/A Snow Light Snow
3:15 AM 32.0 °F 24.2 °F 30.2 °F 93% 29.61 in 2.0 mi NW 9.2 mph - N/A Snow Light Snow
3:35 AM 32.0 °F 23.0 °F 30.2 °F 93% 29.61 in 7.0 mi NW 11.5 mph 18.4 mph N/A Snow Light Snow
3:55 AM 32.0 °F 21.6 °F 28.4 °F 87% 29.61 in 4.0 mi NW 15.0 mph 19.6 mph N/A Snow Light Snow
4:15 AM 32.0 °F 20.5 °F 28.4 °F 87% 29.61 in 4.0 mi NW 18.4 mph 24.2 mph N/A Snow Light Snow
4:35 AM 30.2 °F 20.8 °F 28.4 °F 93% 29.62 in 1.8 mi NW 11.5 mph 21.9 mph N/A Snow Light Snow
4:55 AM 30.2 °F 17.8 °F 28.4 °F 93% 29.63 in 5.0 mi NW 19.6 mph 24.2 mph N/A   Mist
5:15 AM 30.2 °F 18.1 °F 28.4 °F 93% 29.64 in 7.0 mi NW 18.4 mph 25.3 mph N/A   Unknown
5:35 AM 30.2 °F 20.2 °F 28.4 °F 93% 29.64 in 4.0 mi WNW 12.7 mph 20.7 mph N/A Snow Light Snow
5:55 AM 30.2 °F 19.3 °F 28.4 °F 93% 29.65 in 4.0 mi WNW 15.0 mph 24.2 mph N/A   Mist
6:15 AM 28.4 °F 14.1 °F 26.6 °F 93% - 4.0 mi WNW 24.2 mph 28.8 mph N/A   Mist
6:35 AM 28.4 °F 16.6 °F 26.6 °F 93% 29.67 in 10.0 mi WNW 16.1 mph 25.3 mph N/A   Unknown
6:55 AM 28.4 °F 14.7 °F 26.6 °F 93% 29.69 in 5.0 mi WNW 21.9 mph 29.9 mph N/A   Mist
7:15 AM 26.6 °F 12.0 °F 24.8 °F 93% 29.69 in 5.0 mi WNW 23.0 mph 29.9 mph N/A   Mist
7:35 AM 26.6 °F 13.4 °F 24.8 °F 93% 29.69 in 10.0 mi WNW 18.4 mph 24.2 mph N/A   Unknown
7:55 AM 26.6 °F 13.1 °F 23.0 °F 86% 29.70 in 5.0 mi WNW 19.6 mph 32.2 mph N/A   Mist
8:15 AM 26.6 °F 13.4 °F 21.2 °F 80% 29.71 in 7.0 mi WNW 18.4 mph 27.6 mph N/A   Unknown
8:35 AM 26.6 °F 13.4 °F 21.2 °F 80% 29.71 in 7.0 mi WNW 18.4 mph 28.8 mph N/A   Unknown
8:55 AM 26.6 °F 13.1 °F 21.2 °F 80% 29.72 in 10.0 mi WNW 19.6 mph 24.2 mph N/A   Unknown
9:15 AM 26.6 °F 13.8 °F 21.2 °F 80% 29.72 in 10.0 mi WNW 17.3 mph 21.9 mph N/A   Unknown
9:35 AM 26.6 °F 14.3 °F 21.2 °F 80% 29.72 in 10.0 mi WNW 16.1 mph 20.7 mph N/A Snow Light Snow
10:15 AM 26.6 °F 15.7 °F 21.2 °F 80% 29.73 in 7.0 mi WNW 12.7 mph - N/A Snow Light Snow
10:35 AM 26.6 °F 13.4 °F 23.0 °F 86% 29.73 in 7.0 mi WNW 18.4 mph 24.2 mph N/A Snow Light Snow
10:55 AM 26.6 °F 15.2 °F 21.2 °F 80% 29.74 in 7.0 mi WNW 13.8 mph 23.0 mph N/A Snow Light Snow
11:15 AM 26.6 °F 14.7 °F 21.2 °F 80% 29.73 in 7.0 mi WNW 15.0 mph 21.9 mph N/A Snow Light Snow
11:35 AM 26.6 °F 14.7 °F 23.0 °F 86% 29.73 in 3.0 mi WNW 15.0 mph 24.2 mph N/A Snow Light Snow
11:55 AM 26.6 °F 14.3 °F 23.0 °F 86% 29.73 in 2.5 mi West 16.1 mph 23.0 mph N/A Snow Light Snow
12:15 PM 26.6 °F 13.4 °F 23.0 °F 86% 29.72 in 1.5 mi West 18.4 mph 24.2 mph N/A Snow Light Snow
12:35 PM 26.6 °F 15.2 °F 23.0 °F 86% 29.73 in 1.8 mi West 13.8 mph 25.3 mph N/A Snow Light Snow
12:55 PM 26.6 °F 14.3 °F 21.2 °F 80% 29.73 in 1.8 mi WNW 16.1 mph 24.2 mph N/A Snow Light Snow
1:15 PM 26.6 °F 12.7 °F 21.2 °F 80% 29.73 in 1.8 mi WNW 20.7 mph 27.6 mph N/A Snow Light Snow
1:35 PM 26.6 °F 13.4 °F 21.2 °F 80% 29.74 in 3.0 mi West 18.4 mph 31.1 mph N/A Snow Light Snow
1:55 PM 26.6 °F 12.0 °F 21.2 °F 80% 29.75 in 2.5 mi WNW 23.0 mph 27.6 mph N/A Snow Light Snow
2:15 PM 26.6 °F 12.7 °F 21.2 °F 80% 29.76 in 3.0 mi West 20.7 mph 29.9 mph N/A Snow Light Snow
2:35 PM 26.6 °F 13.8 °F 21.2 °F 80% 29.78 in 2.0 mi West 17.3 mph 28.8 mph N/A Snow Light Snow
2:55 PM 26.6 °F 14.3 °F 21.2 °F 80% 29.79 in 1.5 mi West 16.1 mph 25.3 mph N/A Snow Light Snow
3:15 PM 24.8 °F 10.7 °F 21.2 °F 86% 29.80 in 0.8 mi WNW 19.6 mph 27.6 mph N/A Snow Light Snow
3:35 PM 24.8 °F 9.3 °F 21.2 °F 86% 29.82 in 0.5 mi WNW 24.2 mph 33.4 mph N/A Snow Light Snow
3:55 PM 24.8 °F 10.7 °F 21.2 °F 86% 29.84 in 1.5 mi WNW 19.6 mph 29.9 mph N/A Snow Light Snow
4:15 PM 24.8 °F 9.0 °F 19.4 °F 80% 29.86 in 1.0 mi WNW 25.3 mph 33.4 mph N/A Snow Light Snow
4:35 PM 24.8 °F 10.7 °F 19.4 °F 80% 29.87 in 2.0 mi WNW 19.6 mph 27.6 mph N/A Snow Light Snow
4:55 PM 24.8 °F 11.1 °F 19.4 °F 80% 29.88 in 1.5 mi WNW 18.4 mph 32.2 mph N/A Snow Light Snow
5:15 PM 24.8 °F 9.6 °F 19.4 °F 80% 29.89 in 2.0 mi WNW 23.0 mph 33.4 mph N/A Snow Light Snow
5:35 PM 24.8 °F 9.0 °F 19.4 °F 80% 29.91 in 3.0 mi WNW 25.3 mph 34.5 mph N/A Snow Light Snow
5:55 PM 24.8 °F 9.6 °F 17.6 °F 74% 29.91 in 3.0 mi WNW 23.0 mph 32.2 mph N/A Snow Light Snow
6:15 PM 23.0 °F 6.9 °F 17.6 °F 80% 29.92 in 4.0 mi WNW 24.2 mph 32.2 mph N/A Snow Light Snow
6:35 PM 23.0 °F 6.6 °F 17.6 °F 80% 29.93 in 5.0 mi WNW 25.3 mph 32.2 mph N/A   Haze
6:55 PM 23.0 °F 9.2 °F 15.8 °F 74% 29.94 in 7.0 mi WNW 17.3 mph 28.8 mph N/A Snow Light Snow
7:15 PM 21.2 °F 6.4 °F 17.6 °F 86% 29.94 in 5.0 mi WNW 18.4 mph 26.5 mph N/A Snow Light Snow
7:35 PM 21.2 °F 5.2 °F 15.8 °F 80% 29.95 in 3.0 mi WNW 21.9 mph 28.8 mph N/A Snow Light Snow
7:55 PM 21.2 °F 6.0 °F 15.8 °F 80% 29.96 in 3.0 mi WNW 19.6 mph 29.9 mph N/A Snow Light Snow
8:15 PM 19.4 °F 2.5 °F 15.8 °F 86% 29.97 in 1.5 mi WNW 23.0 mph 35.7 mph N/A Snow Light Snow
8:35 PM 19.4 °F 3.2 °F 12.2 °F 74% 29.97 in 4.0 mi WNW 20.7 mph 34.5 mph N/A Snow Light Snow
8:55 PM 19.4 °F 2.8 °F 12.2 °F 74% 29.97 in 3.0 mi WNW 21.9 mph 34.5 mph N/A Snow Light Snow
9:15 PM 19.4 °F 3.6 °F 12.2 °F 74% 29.98 in 5.0 mi WNW 19.6 mph 29.9 mph N/A Snow Light Snow
9:35 PM 19.4 °F 2.1 °F 12.2 °F 74% 29.98 in 7.0 mi WNW 24.2 mph 32.2 mph N/A   Unknown
9:55 PM 19.4 °F 2.8 °F 12.2 °F 74% 29.98 in 4.0 mi WNW 21.9 mph 28.8 mph N/A Snow Light Snow
10:15 PM 17.6 °F 1.7 °F 10.4 °F 73% 29.99 in 5.0 mi WNW 18.4 mph 35.7 mph N/A   Haze
10:35 PM 17.6 °F 1.7 °F 12.2 °F 79% 29.99 in 3.0 mi WNW 18.4 mph 29.9 mph N/A Snow Light Snow
11:15 PM 17.6 °F 2.2 °F 10.4 °F 73% 30.00 in 4.0 mi WNW 17.3 mph 27.6 mph N/A Snow Light Snow
11:35 PM 17.6 °F 0.9 °F 10.4 °F 73% 30.01 in 4.0 mi NW 20.7 mph 32.2 mph N/A Snow Light Snow
11:55 PM 15.8 °F -2.3 °F 8.6 °F 73% 30.01 in 3.0 mi NW 23.0 mph 36.8 mph N/A   Haze